SL-16 R/B (16182 NORAD) Tracking and Keplerian Element Data

This shows tracking and keplerian element data for the satellite.

Feedback or suggestion? Click here.




ElementValue
Catalog16182
NameSL-16 R/B
Epoch Orbit97616
Epoch Day13.1704117
Epoch Year2024
RAAN356.1431
Inclination71.0035
Eccentricity0.0007313
Argument of Perigee356.2949
Mean Anonmoly80.2962
Mean Motion14.16383223
Decay Rate-1.37E-06
L11 16182U 85097B 24013.17041170 -.00000137 00000+0 -45069-4 0 9998
L22 16182 71.0035 356.1431 0007313 356.2949 80.2962 14.16383223976160



Live tracking and technical data element details for SL-16 R/B (NORAD 16182). SL-16 R/B can be tracked NOW for your location showing map with azimuth and elevation plus other details from your city location.







IsCatalogInMostPopularTable: catalog: 16182, numindb: 381
Update: records affected: 1



GetName: 16182 SL-16 R/B

Hit Count: updated at: Sun, 14 Apr 2024 23:49:13 GMT